Regional Weather Roundup
Issued by NWS

Home | Current Version | Previous Version | Graphics & Text | Print | Product List | Glossary On
Versions: 1 2 3 4 5 6 7 8 9 10 11 12 13 14 15 16 17 18 19 20 21 22 23 24 25 26 27 28 29 30 31 32 33 34 35 36 37 38 39 40 41 42 43 44 45 46 47 48 49 50
000
ASUS43 KFSD 241302
RWRSD

WEATHER ROUNDUP FOR SOUTH DAKOTA
NATIONAL WEATHER SERVICE SIOUX FALLS SD
800 AM CDT WED MAY 24 2017

NOTE: "FAIR" INDICATES FEW OR NO CLOUDS BELOW 12,000 FEET WITH NO
SIGNIFICANT WEATHER AND/OR OBSTRUCTIONS TO VISIBILITY.


SDZ001>005-009-010-012>017-241400-
NORTHWEST AND NORTH CENTRAL SOUTH DAKOTA

CITY           SKY/WX    TMP DP  RH WIND       PRES   REMARKS
BUFFALO          N/A     49  38  65 SE15      29.62F
FAITH            N/A     44  40  85 S10       29.76F
MOBRIDGE       SUNNY     45  42  89 SE5       29.78F
$$

SDZ012>016-024>037-041>051-057-063-072>074-241400-
SOUTHWEST AND SOUTH CENTRAL SOUTH DAKOTA

CITY           SKY/WX    TMP DP  RH WIND       PRES   REMARKS
RAPID CTY ARPT SUNNY     45  38  76 S12       29.75F
PIERRE         SUNNY     41  37  86 CALM      29.80F
CUSTER         CLOUDY    43  31  62 VRB3      29.78F
ELLSWORTH AFB  SUNNY     45  38  78 S12       29.73F
PHILIP         SUNNY     38  36  92 CALM      29.80F
PINE RIDGE     SUNNY     47  39  74 S7        29.79F
SPEARFISH      FAIR      48  41  76 CALM      29.69F
WINNER         FAIR      46  40  79 CALM      29.83F
$$

SDZ004>011-016>023-039-040-241400-
NORTHEAST SOUTH DAKOTA

CITY           SKY/WX    TMP DP  RH WIND       PRES   REMARKS
ABERDEEN       SUNNY     44  40  85 NE3       29.83S
WATERTOWN      CLOUDY    47  45  93 CALM      29.81F
BROOKINGS      CLOUDY    47  45  93 N5        29.82S
SISSETON         N/A     48  46  93 NW5       29.82F
$$

SDZ017-020-022-023-036>040-048>070-241400-
SOUTHEAST SOUTH DAKOTA

CITY           SKY/WX    TMP DP  RH WIND       PRES   REMARKS
SIOUX FALLS    CLOUDY    47  46  97 NE6       29.82R
HURON          PTSUNNY   42  42 100 NW3       29.83S FOG
CHAMBERLAIN    SUNNY     45  45  97 CALM      29.84S
MITCHELL       SUNNY     44  42  93 N3        29.84S
YANKTON        SUNNY     46  44  93 NW9       29.83S
$$

ABBREVIATIONS USED IN REMARKS
   TC - TEMPERATURE IN CELSIUS
  WCI - WIND CHILL INDEX
   HX - HEAT INDEX
  VSB - VISIBILITY




USA.gov is the U.S. government's official web portal to all federal, state and local government web resources and services.